Hourly Data Report for July 02, 2022

MIRAMICHI RCS
NEW BRUNSWICK
Current Station Operator: ECCC - MSC

47°00'34.000" N
65°27'54.000" W
33.00 m
8100989
71744
ACQ

Download Data

Hourly Data (July 2022)
Hourly Data Report for July 2, 2022
TIME
LST
Temp Definition
°C
Dew Point Definition
°C
Rel Hum Definition
%
Precip. Amount Definition
mm

Wind Dir Definition
10's deg

Wind Spd Definition
km/h
Visibility Definition
km
Stn Press Definition
kPa
Hmdx Definition


Wind Chill Definition


Weather Definition


00:00 18.1 16.9 93 0.0 24 17   100.48     LegendNANA
01:00 18.0 16.9 93 0.0 24 15   100.44     LegendNANA
02:00 17.3 16.5 95 0.0 23 8   100.38     LegendNANA
03:00 17.3 16.6 96 0.0 23 15   100.40     LegendNANA
04:00 17.1 16.5 96 0.0 23 12   100.40     LegendNANA
05:00 17.0 16.4 96 0.0 22 10   100.38     LegendNANA
06:00 17.5 16.5 94 0.0 22 14   100.37     LegendNANA
07:00 17.8 16.5 92 0.0 23 14   100.40     LegendNANA
08:00 18.2 16.5 90 0.0 22 14   100.35     LegendNANA
09:00 19.3 16.9 86 0.0 23 15   100.32     LegendNANA
10:00 19.3 17.0 86 0.0 22 20   100.32     LegendNANA
11:00 18.9 17.5 92 0.0 23 18   100.30     LegendNANA
12:00 20.4 18.0 86 0.0 20 17   100.22 26   LegendNANA
13:00 20.5 18.0 86 0.0 21 17   100.23 27   LegendNANA
14:00 21.2 18.4 84 0.0 21 18   100.20 28   LegendNANA
15:00 21.8 18.3 80 0.0 20 26   100.15 28   LegendNANA
16:00 23.0 17.6 72 0.0 20 23   100.13 29   LegendNANA
17:00 24.2 18.2 69 0.0 22 25   100.04 30   LegendNANA
18:00 24.2 18.4 70 0.0 22 17   100.04 31   LegendNANA
19:00 23.0 19.1 79 0.0 20 11   100.09 30   LegendNANA
20:00 21.9 19.1 84 0.0 19 11   100.09 29   LegendNANA
21:00 20.9 18.9 89 0.0 22 12   100.17 28   LegendNANA
22:00 20.8 19.1 90 0.0 25 7   100.27 28   LegendNANA
23:00 19.2 18.3 95 0.0 24 8   100.30     LegendNANA

Notes on Data Quality.

Legend

  • E = Estimated
  • M = Missing
  • NA = Not Available*
  • [empty] = Indicates an unobserved value
Date modified: